TimeEDT,TemperatureF,Dew PointF,Humidity,Sea Level PressureIn,VisibilityMPH,Wind Direction,Wind SpeedMPH,Gust SpeedMPH,PrecipitationIn,Events,Conditions,WindDirDegrees,DateUTC
12:53 AM,52.0,43.0,71,29.57,10.0,Calm,Calm,-,N/A,,Overcast,0,2012-11-01 04:53:00
1:53 AM,54.0,43.0,66,29.56,10.0,SW,8.1,-,N/A,,Overcast,230,2012-11-01 05:53:00
2:53 AM,53.1,45.0,74,29.56,10.0,WSW,10.4,-,N/A,,Overcast,250,2012-11-01 06:53:00
3:53 AM,52.0,42.1,69,29.56,10.0,WSW,8.1,-,N/A,,Overcast,250,2012-11-01 07:53:00
4:53 AM,51.1,43.0,74,29.57,10.0,WSW,4.6,-,N/A,,Overcast,250,2012-11-01 08:53:00
5:53 AM,50.0,41.0,71,29.57,10.0,West,5.8,-,N/A,,Partly Cloudy,260,2012-11-01 09:53:00
6:53 AM,50.0,41.0,71,29.57,10.0,WSW,5.8,-,N/A,,Mostly Cloudy,250,2012-11-01 10:53:00
8:53 AM,52.0,42.1,69,29.59,10.0,WSW,5.8,-,N/A,,Overcast,240,2012-11-01 12:53:00
9:53 AM,53.1,42.1,66,29.59,10.0,WSW,6.9,-,N/A,,Mostly Cloudy,240,2012-11-01 13:53:00
10:53 AM,53.1,42.1,66,29.59,10.0,WSW,9.2,18.4,N/A,,Overcast,240,2012-11-01 14:53:00
11:53 AM,54.0,43.0,66,29.58,10.0,WSW,10.4,-,N/A,,Overcast,240,2012-11-01 15:53:00
12:53 PM,54.0,43.0,66,29.56,10.0,WSW,9.2,-,N/A,,Overcast,250,2012-11-01 16:53:00
1:53 PM,55.0,41.0,59,29.55,10.0,WSW,13.8,24.2,N/A,,Overcast,240,2012-11-01 17:53:00
2:53 PM,54.0,43.0,66,29.55,10.0,WSW,10.4,20.7,N/A,,Overcast,250,2012-11-01 18:53:00
3:53 PM,53.1,43.0,69,29.54,10.0,WSW,11.5,18.4,N/A,,Overcast,240,2012-11-01 19:53:00
4:53 PM,53.1,42.1,66,29.54,10.0,WSW,8.1,16.1,N/A,,Overcast,250,2012-11-01 20:53:00
5:53 PM,52.0,41.0,66,29.55,10.0,WSW,10.4,18.4,N/A,,Overcast,240,2012-11-01 21:53:00
6:53 PM,52.0,42.1,69,29.56,10.0,WSW,5.8,-,N/A,,Overcast,250,2012-11-01 22:53:00
7:53 PM,52.0,41.0,66,29.56,10.0,WSW,5.8,-,N/A,,Overcast,240,2012-11-01 23:53:00
8:53 PM,51.1,42.1,71,29.56,10.0,WSW,4.6,-,N/A,,Overcast,250,2012-11-02 00:53:00
9:53 PM,52.0,41.0,66,29.56,10.0,WNW,6.9,-,N/A,,Overcast,290,2012-11-02 01:53:00
10:53 PM,52.0,41.0,66,29.57,10.0,WNW,3.5,-,N/A,,Overcast,290,2012-11-02 02:53:00
11:53 PM,51.1,41.0,68,29.57,10.0,WNW,4.6,-,N/A,,Overcast,290,2012-11-02 03:53:00